Regional Weather Roundup
Issued by NWS Columbia, SC

Home | Current Version | Previous Version | Text Only | Print | Product List | Glossary On
Versions: 1 2 3 4 5 6 7 8 9 10 11 12 13 14 15 16 17 18 19 20 21 22 23 24 25 26 27 28
000
ASUS42 KCAE 310710
RWRCAE
REGIONAL WEATHER ROUNDUP
NATIONAL WEATHER SERVICE COLUMBIA SC
300 AM EDT SAT JUL 31 2021

NOTE: "FAIR" INDICATES FEW OR NO CLOUDS BELOW 12,000 FEET WITH NO
SIGNIFICANT WEATHER AND/OR OBSTRUCTIONS TO VISIBILITY.

NOT ALL STATIONS ARE QUALITY CONTROLLED BY THE NATIONAL
WEATHER SERVICE. USE DATA WITH CAUTION...ESPECIALLY
DEWPOINT OBSERVATIONS.

SCZ001>059-115-116-135>137-GAZ040-063>065-077-310800-
...UPSTATE SOUTH CAROLINA...

CITY           SKY/WX    TMP DP  RH WIND       PRES   REMARKS
ANDERSON       PTCLDY    78  76  93 N3        29.95F
LIBERTY        PTCLDY    73  73 100 CALM      29.96F FOG
SPARTANBURG    PTCLDY    77  68  73 CALM      29.96F
CLEMSON        PTCLDY    77  75  93 N3        29.96F
GREENVILLE     PTCLDY    80  68  66 N6        29.98F
GREENWOOD      PTCLDY    75  75 100 CALM      29.96F FOG
GREER          PTCLDY    73  68  84 NE5       29.97F
ROCK HILL      CLEAR     73  71  93 CALM      29.95F
LAURENS        PTCLDY    75  73  94 CALM      29.95F


...CENTRAL SOUTH CAROLINA...

CITY           SKY/WX    TMP DP  RH WIND       PRES   REMARKS
COLUMBIA APT   PTCLDY    79  75  87 SW3       29.92F
COLUMBIA OWENS PTCLDY    80  77  90 CALM      29.93F
MCENTIRE ANGB  PTCLDY    76  76 100 CALM      29.91F FOG
ORANGEBURG     PTCLDY    77  76  96 S3        29.94F
SUMTER SHAW    CLEAR     78  75  90 S3        29.91F
AIKEN          FAIR      78  75  91 CALM      29.95F
BARNWELL       MOCLDY    79  75  89 CALM      29.94F
MANNING        FAIR      79  77  94 CALM      29.92F
CAMDEN         FAIR      77  75  94 CALM      29.93F
LANCASTER      MOCLDY    75  73  94 CALM      29.94F FOG
WINNSBORO      CLEAR     77  73  88 CALM      29.94F


...EASTERN AND COASTAL SOUTH CAROLINA...

CITY           SKY/WX    TMP DP  RH WIND       PRES   REMARKS
MYRTLE BEACH   CLEAR     82  80  94 S7        29.92F
N MYRTLE BCH   CLEAR     82  77  84 SW6       29.91F
CONWAY         FAIR      79  77  94 CALM      29.92F
MARION         FAIR      79  79 100 CALM      29.92F
HARTSVILLE     FAIR      75  73  94 CALM      29.92F
FLORENCE       CLEAR     80  75  84 CALM      29.92F
DARLINGTON     CLEAR     76  75  97 CALM      29.92F
CHARLESTON APT PTCLDY    81  79  94 SW8       29.92F
MOUNT PLEASANT CLOUDY    82  82 100 S7        29.93F HX  97
WALTERBORO     CLEAR     81  79  94 SW3       29.95F
BEAUFORT       CLEAR     82  78  88 SW6       29.94F
HILTON HEAD    CLEAR     84  79  84 SW5       29.95F HX  96


...EASTERN GEORGIA...

CITY           SKY/WX    TMP DP  RH WIND       PRES   REMARKS
AUGUSTA BUSH F CLEAR     78  76  93 CALM      29.92F
AUGUSTA DANIEL PTCLDY    83  76  79 CALM      29.94F
THOMSON        PTCLDY    78  77  97 CALM      29.95F FOG
WASHINGTON     FAIR      77  74  92 CALM      29.96F
CLAXTON        FAIR      79  78  96 CALM      29.96F FOG
SYLVANIA       PTCLDY    79  75  88 CALM      29.96F
STATESBORO     CLEAR     80  73  80 CALM      29.95F
SAVANNAH       CLEAR     80  76  87 SW7       29.95F


...SOUTHERN NORTH CAROLINA...

CITY           SKY/WX    TMP DP  RH WIND       PRES   REMARKS
CHARLOTTE      PTCLDY    76  70  82 N6        29.96F
MONROE         CLEAR     74  72  93 CALM      29.94F
WADESBORO      CLEAR     75  73  92 CALM      29.92F
ROCKINGHAM     CLEAR     78  74  88 CALM      29.92F
ASHEVILLE      CLEAR     69  67  93 CALM      30.06F

$$



USA.gov is the U.S. government's official web portal to all federal, state and local government web resources and services.